Home > Weather > Yakutsk > Past weeks

Flag for Russia Past Weather in Yakutsk, Russia — Yesterday and Last 2 Weeks

Now
64 °F

Partly sunny.


Feels Like: 64 °F
Forecast: 59 / 78 °F
Wind: 1 mph from East

Location: Jakutsk

Current Time: Jul 29, 2016 at 7:23:05 AM

Latest Report: Jul 29, 2016 at 7:00 AM


Visibility: N/A

Pressure: 29.68 "Hg

Humidity: 83%

Dew Point: 59 °F

Location of YakutskLocation

Past Weather in Yakutsk — Graph

°F

Yakutsk Temperature Yesterday

Maximum temperature yesterday: 72 °F (at 11:00 AM)
Minimum temperature yesterday: 57 °F (at 4:30 AM)
Average temperature yesterday: 66 °F

High & Low Weather Summary for the Past Weeks

 TemperatureHumidityPressure
High81 °F (Jul 20, 12:30 PM)100% (Jul 19, 10:00 PM)30.09 "Hg (Jul 19, 10:00 PM)
Low46 °F (Jul 14, 6:00 AM)23% (Jul 20, 2:00 PM)29.59 "Hg (Jul 19, 7:00 PM)
Average63 °F71%29.75 "Hg
* Reported Jul 14 6:00 AM — Jul 29 6:00 AM, Yakutsk, Weather by CustomWeather, © 2016

Note: Actual official high and low records may vary slightly from our data, if they occured in-between our weather recording intervals... More about our weather records

Advertising

Yakutsk Weather History for the Previous 24 Hours

Scroll right to see more
 ConditionsComfort  
Time TempWeatherWind HumidityBarometerVisibility
6:00 AM
Fri, Jul 29
63 °FBroken clouds.1 mph94%29.68 "HgN/A
5:30 AM63 °FBroken clouds.1 mph94%29.68 "HgN/A
5:00 AM63 °FBroken clouds.1 mph94%29.68 "HgN/A
4:30 AM63 °FScattered clouds.1 mph88%29.68 "HgN/A
4:00 AM63 °FPartly sunny.1 mph88%29.68 "HgN/A
3:30 AM63 °FPartly sunny.1 mph88%29.68 "HgN/A
3:00 AM63 °FPartly sunny.1 mph88%29.68 "HgN/A
2:30 AM63 °FPassing clouds.1 mph88%29.68 "HgN/A
2:00 AM63 °FPassing clouds.1 mph94%29.68 "HgN/A
1:30 AM63 °FPassing clouds.1 mph94%29.68 "HgN/A
1:00 AM63 °FPassing clouds.1 mph94%29.68 "HgN/A
12:30 AM64 °FPassing clouds.1 mph88%29.68 "HgN/A
12:00 AM64 °FPassing clouds.1 mph88%29.68 "HgN/A
11:30 PM
Thu, Jul 28
64 °FPassing clouds.1 mph88%29.68 "HgN/A
11:00 PM64 °FPassing clouds.1 mph88%29.68 "HgN/A
10:30 PM64 °FPassing clouds.1 mph83%29.68 "HgN/A
10:00 PM64 °FPassing clouds.1 mph83%29.68 "HgN/A
9:30 PM64 °FPassing clouds.1 mph88%29.68 "HgN/A
9:00 PM66 °FPassing clouds.1 mph78%29.68 "HgN/A
8:30 PM68 °FPassing clouds.1 mph73%29.68 "HgN/A
8:00 PM68 °FScattered clouds.1 mph73%29.68 "HgN/A
7:30 PM68 °FScattered clouds.3 mph73%29.68 "HgN/A
7:00 PM68 °FScattered clouds.3 mph78%29.68 "HgN/A
6:30 PM70 °FScattered clouds.3 mph73%29.65 "HgN/A
6:00 PM70 °FScattered clouds.1 mph73%29.65 "HgN/A
5:30 PM70 °FScattered clouds.1 mph73%29.65 "HgN/A
5:00 PM70 °FScattered clouds.3 mph73%29.65 "HgN/A
4:30 PM70 °FScattered clouds.3 mph73%29.65 "HgN/A
4:00 PM70 °FScattered clouds.3 mph73%29.65 "HgN/A
3:30 PM72 °FScattered clouds.1 mph69%29.65 "HgN/A
3:00 PM72 °FScattered clouds.1 mph69%29.65 "HgN/A
2:30 PM72 °FPartly sunny.3 mph69%29.65 "HgN/A
2:00 PM72 °FPartly sunny.1 mph69%29.65 "HgN/A
1:30 PM70 °FPartly sunny.1 mph73%29.65 "HgN/A
1:00 PM70 °FPartly sunny.3 mph73%29.65 "HgN/A
12:30 PM70 °FScattered clouds.3 mph73%29.68 "HgN/A
12:00 PM72 °FScattered clouds.6 mph69%29.68 "HgN/A
11:30 AM72 °FPartly sunny.6 mph73%29.65 "HgN/A
11:00 AM72 °FPartly sunny.3 mph69%29.68 "HgN/A
10:30 AM70 °FPartly sunny.3 mph78%29.68 "HgN/A
10:00 AM68 °FPartly sunny.3 mph78%29.68 "HgN/A
9:30 AM66 °FPartly sunny.3 mph83%29.68 "HgN/A
9:00 AM66 °FPartly sunny.3 mph83%29.68 "HgN/A
8:30 AM64 °FPartly sunny.3 mph88%29.68 "HgN/A
8:00 AM64 °FMore clouds than sun.3 mph88%29.71 "HgN/A
7:30 AM64 °FMore clouds than sun.3 mph88%29.71 "HgN/A
7:00 AM63 °FMore clouds than sun.1 mph94%29.71 "HgN/A
Weather by CustomWeather, © 2016

See weather overviewHow to use our weather pages